This demonstration page uses our WeatherBlox Daily Observations layout. Learn more.

Left ArrowRight Arrow

44.8408, -93.29828

Hourly Observations for November 25, 2020

Temp ( °F °C ) Dew Point ( °F °C ) Humidity (%) Winds ( mph kmh ) Pressure ( in mb ) Visibility ( mi km ) Precip ( " mm )
12:29 am 00:29 Cloudy 36 2.2 35 1.7 97 97 NNW 5 7 29.93 1013 8 13 0.00 0.00
12:53 am 00:53 Cloudy 36 2.2 35 1.7 97 97 N 6 9 29.91 1013 9 14 0.00 0.00
1:21 am 01:21 Cloudy 36 2.2 35 1.7 97 97 Calm 29.92 1013 9 14 0.00 0.00
1:53 am 01:53 Cloudy 36 2.2 34 1.1 93 93 NNW 7 11 29.91 1013 8 13 0.00 0.00
2:53 am 02:53 Cloudy 36 2.2 34 1.1 93 93 N 9 15 29.91 1013 9 14 0.00 0.00
3:53 am 03:53 Cloudy 36 2.2 34 1.1 93 93 N 6 9 29.91 1013 9 14 0.00 0.00
4:53 am 04:53 Cloudy 36 2.2 34 1.1 93 93 N 9 15 29.92 1013 9 14 0.00 0.00
5:53 am 05:53 Cloudy 35 1.7 33 0.6 93 93 N 10 17 29.91 1013 9 14 0.00 0.00
6:53 am 06:53 Cloudy 35 1.7 33 0.6 93 93 NNE 8 13 29.92 1013 9 14 0.00 0.00
7:53 am 07:53 Cloudy 34 1.1 32 0 92 92 NE 8 13 29.93 1014 9 14 0.00 0.00
8:53 am 08:53 Cloudy 34 1.1 31 -0.6 89 89 ENE 10 17 29.95 1014 10 16 0.00 0.00
9:17 am 09:17 Cloudy 34 1.1 32 0 92 92 E 7 11 29.96 1015 10 16 0.00 0.00
9:33 am 09:33 Cloudy 35 1.7 31 -0.6 85 85 E 7 11 29.97 1015 10 16 0.00 0.00
9:53 am 09:53 Cloudy 35 1.7 31 -0.6 85 85 E 9 15 29.96 1014 10 16 0.00 0.00
10:53 am 10:53 Cloudy 35 1.7 31 -0.6 85 85 E 6 9 29.95 1014 10 16 0.00 0.00
11:53 am 11:53 Cloudy 35 1.7 31 -0.6 85 85 NE 6 9 29.94 1014 10 16 0.00 0.00
12:53 pm 12:53 Cloudy 35 1.7 31 -0.6 85 85 E 7 11 29.93 1014 10 16 0.00 0.00
1:53 pm 13:53 Cloudy 35 1.7 30 -1.1 82 82 NNE 3 6 29.92 1013 10 16 0.00 0.00
2:53 pm 14:53 Cloudy 35 1.7 30 -1.1 82 82 ESE 3 6 29.91 1013 10 16 0.00 0.00
3:53 pm 15:53 Cloudy 35 1.7 30 -1.1 82 82 ESE 7 11 29.90 1013 10 16 0.00 0.00
4:53 pm 16:53 Cloudy 35 1.7 30 -1.1 82 82 Calm 29.90 1013 10 16 0.00 0.00
6:53 pm 18:53 Cloudy 34 1.1 32 0 92 92 SE 5 7 29.91 1013 8 13 0.00 0.00
7:53 pm 19:53 Cloudy 34 1.1 31 -0.6 89 89 Calm 29.91 1013 10 16 0.00 0.00
8:48 pm 20:48 Cloudy 36 2 28 -2 75 75 WSW 8 13 29.93 1013 10 16 0.00 0.00
8:53 pm 20:53 Cloudy 35 1.7 29 -1.7 78 78 SW 9 15 29.92 1013 10 16 0.00 0.00
9:27 pm 21:27 Cloudy 35 1.7 29 -1.7 78 78 SW 8 13 29.93 1014 10 16 0.00 0.00
9:53 pm 21:53 Cloudy 35 1.7 29 -1.7 78 78 SSW 8 13 29.92 1013 10 16 0.00 0.00
10:53 pm 22:53 Cloudy 34 1.1 30 -1.1 85 85 SW 7 11 29.92 1013 10 16 0.00 0.00
11:53 pm 23:53 Cloudy 35 1.7 30 -1.1 82 82 S 6 9 29.91 1013 10 16 0.00 0.00

Powered by AerisWeather